Regional Weather Roundup
Issued by NWS Sioux Falls, SD

Home | Current Version | Previous Version | Text Only | Print | Product List | Glossary Off
Versions: 1 2 3 4 5 6 7 8 9 10 11 12 13 14 15 16 17 18 19 20 21 22 23 24 25 26 27 28 29 30 31 32 33 34 35 36 37 38 39 40 41 42 43 44 45 46 47 48 49 50

073
ASUS43 KFSD 230110
RWRFSD

WEATHER ROUNDUP FOR SE SOUTH DAKOTA/SW MINNESOTA/NW IOWA
NATIONAL WEATHER SERVICE SIOUX FALLS SD
800 PM CDT TUE AUG 22 2017

NOTE: "FAIR" INDICATES FEW OR NO CLOUDS BELOW 12,000 FEET WITH NO
SIGNIFICANT WEATHER AND OR OBSTRUCTIONS TO VISIBILITY.


SDZ038>040-050-052>070-230200-
SOUTHEAST SOUTH DAKOTA

CITY           SKY/WX    TMP DP  RH WIND       PRES   REMARKS
BROOKINGS      CLEAR     67  51  56 NW5       30.13S
CHAMBERLAIN    CLEAR     73  59  61 SE3       30.13F
HURON          CLEAR     69  50  50 N7        30.11F
MADISON        FAIR      66  52  59 NW3       30.14S
MITCHELL       CLEAR     73  51  46 CALM      30.12F
SIOUX FALLS    CLEAR     68  56  65 CALM      30.12F
WINNER         FAIR      72  58  61 E7        30.14F
YANKTON        CLEAR     72  52  49 CALM      30.13F
$$

MNZ071-072-080-081-089-090-097-098-230200-
SOUTHWEST MINNESOTA

CITY           SKY/WX    TMP DP  RH WIND       PRES   REMARKS
FAIRMONT       CLEAR     64  53  67 NW6       30.11R
JACKSON        CLEAR     63  52  67 CALM      30.12S
LUVERNE        CLEAR     66  52  59 CALM      30.13F
MARSHALL       CLEAR     67  52  58 NW6       30.10F
MONTEVIDEO     CLEAR     66  48  52 N3        30.10S
PIPESTONE      CLEAR     68  48  49 NW3       30.13S
REDWOOD FALLS  CLEAR     66  49  54 NW5       30.08F
TRACY          CLEAR     65  55  69 NW3       30.11S
WINDOM         CLEAR     63  54  72 NW5       30.11S
WORTHINGTON    CLEAR     64  52  64 W6        30.13S
$$

IAZ001>003-012>014-020>022-031-032-NEZ013-014-SDZ071-230200-
NORTHWEST IOWA

CITY           SKY/WX    TMP DP  RH WIND       PRES   REMARKS
CHEROKEE       CLEAR     67  51  56 NW5       30.13S
DENISON        CLEAR     68  55  64 NW5       30.14S
ESTHERVILLE    CLEAR     63  56  78 NW6       30.11S
ORANGE CITY    CLEAR     70  54  56 CALM      30.14S
SHELDON        CLEAR     63  55  77 NW5       30.12S
SIOUX CITY     CLEAR     69  54  58 NW6       30.13S
SPENCER        CLEAR     64  55  72 NW7       30.12S
STORM LAKE     CLEAR     64  54  68 NW6       30.13S
$$

ABBREVIATIONS USED IN REMARKS
   TC - TEMPERATURE IN CELSIUS
  WCI - WIND CHILL INDEX
   HX - HEAT INDEX
  VSB - VISIBILITY





USA.gov is the U.S. government's official web portal to all federal, state and local government web resources and services.